N2JWC Weather Reports


time (UTC)temp
C
wind
direction
speed
KPH
gust
KPH
rain 1hr
cm
rain 24hr
cm
rain mn
cm
humidity
%
barometer
mb
20260906071838 21 106 0.0 0.0 0.00 0.00 0.00 99 1015.2
20260906071334 21 113 0.0 0.0 0.00 0.00 0.00 99 1015.2
20260906070830 21 113 0.0 0.0 0.00 0.00 0.00 99 1015.3
20260906070325 21 122 0.0 0.0 0.00 0.00 0.00 99 1015.4
20260906065820 21 127 0.0 0.0 0.00 0.00 0.00 99 1015.4
20260906065315 21 124 0.0 0.0 0.00 0.00 0.00 99 1015.3
20260906064811 21 111 0.0 0.0 0.00 0.00 0.00 99 1015.6
20260906064307 21 111 0.0 0.0 0.00 0.00 0.00 99 1015.5
20260906063807 21 108 0.0 0.0 0.00 0.00 0.00 99 1015.6
20260906063302 21 108 0.0 0.0 0.00 0.00 0.00 99 1015.7
20260906062758 21 108 0.0 0.0 0.00 0.00 0.00 99 1016.0
20260906062256 21 107 0.0 0.0 0.00 0.00 0.00 99 1015.8
20260906061752 21 107 0.0 0.0 0.00 0.00 0.00 99 1016.0
20260906061249 21 107 0.0 0.0 0.00 0.00 0.00 99 1015.7
20260906060743 21 107 0.0 0.0 0.00 0.00 0.00 99 1015.9
20260906060241 21 108 0.0 0.0 0.00 0.00 0.00 99 1016.0
20260906055736 21 108 0.0 0.0 0.00 0.00 0.00 99 1016.2
20260906055232 21 108 0.0 0.0 0.00 0.00 0.00 99 1016.0
20260906054727 21 109 0.0 0.0 0.00 0.00 0.00 99 1015.9
20260906054222 21 109 0.0 0.0 0.00 0.00 0.00 99 1016.0
20260906053719 22 109 0.0 0.0 0.00 0.00 0.00 99 1016.2
20260906053214 22 107 0.0 0.0 0.00 0.00 0.00 99 1016.4
20260906052708 22 107 0.0 0.0 0.00 0.00 0.00 99 1016.2
20260906052205 22 108 0.0 0.0 0.00 0.00 0.00 99 1016.4
20260906051702 22 107 0.0 0.0 0.00 0.00 0.00 99 1016.4
20260906051201 22 107 0.0 0.0 0.00 0.00 0.00 99 1016.7
20260906050657 22 118 0.0 0.0 0.00 0.00 0.00 99 1016.8
20260906050151 22 122 0.0 0.0 0.00 0.00 0.00 99 1016.8
20260906045650 22 126 0.0 0.0 0.00 0.00 0.00 99 1016.7
20260906045145 22 113 0.0 0.0 0.00 0.00 0.00 99 1016.7
20260906044641 22 113 0.0 0.0 0.00 0.00 0.00 99 1016.7
20260906044136 22 118 0.0 0.0 0.00 0.00 0.00 99 1016.9
20260906043633 22 103 0.0 0.0 0.00 0.00 0.00 99 1016.4
20260906043128 22 120 0.0 0.0 0.00 0.00 0.00 99 1016.7
20260906042627 22 110 0.0 0.0 0.00 0.00 0.00 99 1016.7
20260906042122 22 110 0.0 0.0 0.00 0.00 0.00 99 1016.8
20260906041618 22 110 0.0 0.0 0.00 0.00 0.00 99 1016.7
20260906041118 22 110 0.0 0.0 0.00 0.00 0.00 99 1016.8
20260906040614 22 109 0.0 0.0 0.00 0.00 0.00 99 1016.8
20260906040109 22 109 0.0 0.0 0.00 0.00 0.00 99 1016.7
20260906035604 22 109 0.0 0.0 0.00 0.00 0.00 99 1016.9
20260906035100 22 110 0.0 0.0 0.00 0.00 0.00 99 1017.1
20260906034600 22 110 0.0 0.0 0.00 0.00 0.00 99 1017.0
20260906034054 22 110 0.0 0.0 0.00 0.00 0.00 99 1017.2
20260906033550 22 124 0.0 0.0 0.00 0.00 0.00 99 1017.2
20260906033045 22 103 0.0 0.0 0.00 0.00 0.00 99 1017.2
20260906032542 22 103 0.0 0.0 0.00 0.00 0.00 99 1017.1
20260906032036 22 103 0.0 0.0 0.00 0.00 0.00 99 1017.1
20260906031532 22 103 0.0 0.0 0.00 0.00 0.00 99 1016.9
20260906031027 22 103 0.0 0.0 0.00 0.00 0.00 99 1016.9
20260906030526 22 103 0.0 0.0 0.00 0.00 0.00 99 1016.8
20260906030026 22 102 0.0 0.0 0.00 0.00 0.00 99 1017.0
20260906025526 22 106 0.0 0.0 0.00 0.00 0.00 99 1016.9
20260906025024 22 106 0.0 0.0 0.00 0.00 0.00 99 1016.9
20260906024520 22 106 0.0 0.0 0.00 0.00 0.00 99 1016.9
20260906024020 22 106 0.0 0.0 0.00 0.00 0.00 99 1016.9
20260906023516 22 106 0.0 0.0 0.00 0.00 0.00 99 1017.0
20260906023011 22 106 0.0 0.0 0.00 0.00 0.00 99 1016.9
20260906022506 22 105 0.0 0.0 0.00 0.00 0.00 99 1016.7
20260906022001 22 112 0.0 0.0 0.00 0.00 0.00 99 1016.7
20260906021455 22 113 0.0 0.0 0.00 0.00 0.00 99 1016.4
20260906020950 22 112 0.0 0.0 0.00 0.00 0.00 99 1016.7
20260906020445 22 119 0.0 0.0 0.00 0.00 0.00 99 1016.7
20260906015944 22 119 0.0 0.0 0.00 0.00 0.00 99 1016.6
20260906015444 22 119 0.0 0.0 0.00 0.00 0.00 99 1016.6
20260906014943 22 104 0.0 0.0 0.00 0.00 0.00 99 1016.4
20260906014438 22 104 0.0 0.0 0.00 0.00 0.00 99 1016.3
20260906013934 22 104 0.0 0.0 0.00 0.00 0.00 99 1016.4
20260906013429 22 104 0.0 0.0 0.00 0.00 0.00 99 1016.4
20260906012925 22 113 0.0 0.0 0.00 0.00 0.00 98 1016.4
20260906012425 22 129 0.0 0.0 0.00 0.00 0.00 98 1016.6
20260906011924 23 112 0.0 0.0 0.00 0.00 0.00 98 1016.2
20260906011420 23 112 0.0 0.0 0.00 0.00 0.00 97 1016.3
20260906010915 23 112 0.0 0.0 0.00 0.00 0.00 97 1016.1
20260906010411 23 112 0.0 0.0 0.00 0.00 0.00 97 1015.9
20260906005907 23 112 0.0 0.0 0.00 0.00 0.00 96 1015.8
20260906005406 23 112 0.0 0.0 0.00 0.00 0.00 96 1016.1
20260906004905 23 112 0.0 0.0 0.00 0.00 0.00 96 1015.9
20260906004405 23 112 0.0 0.0 0.00 0.00 0.00 96 1016.2
20260906003900 23 112 0.0 0.0 0.00 0.00 0.00 95 1015.8
20260906003355 23 112 0.0 0.0 0.00 0.00 0.00 95 1015.9
20260906002851 23 112 0.0 0.0 0.00 0.00 0.00 95 1016.0
20260906002350 24 112 0.0 0.0 0.00 0.00 0.00 94 1015.8
20260906001846 24 112 0.0 0.0 0.00 0.00 0.00 94 1015.8
20260906001342 24 112 0.0 0.0 0.00 0.00 0.00 93 1015.9
20260906000837 25 112 0.0 0.0 0.00 0.00 0.00 93 1015.7
20260906000337 25 118 0.0 0.0 0.00 0.00 0.00 92 1015.7
20260905235836 25 120 0.0 0.0 0.00 0.00 0.00 91 1015.5
20260905235331 25 120 0.0 0.0 0.00 0.00 0.00 90 1015.3
20260905234827 25 121 0.0 0.0 0.00 0.00 0.00 89 1015.5
20260905234322 25 113 0.0 0.0 0.00 0.00 0.00 89 1015.2
20260905233817 25 113 0.0 0.0 0.00 0.00 0.00 88 1015.2
20260905233312 26 114 0.0 0.0 0.00 0.00 0.00 87 1015.1
20260905232811 26 113 0.0 0.0 0.00 0.00 0.00 86 1015.2
20260905232307 26 113 0.0 0.0 0.00 0.00 0.00 86 1015.3
20260905231803 26 122 0.0 0.0 0.00 0.00 0.00 85 1015.1
20260905231258 26 117 0.0 0.0 0.00 0.00 0.00 84 1015.1
20260905230754 26 117 0.0 0.0 0.00 0.00 0.00 83 1015.2
20260905230252 26 117 0.0 0.0 0.00 0.00 0.00 83 1015.3
20260905225751 26 116 0.0 0.0 0.00 0.00 0.00 83 1015.3
20260905225247 26 122 0.0 0.0 0.00 0.00 0.00 83 1015.3
20260905224746 26 117 0.0 0.0 0.00 0.00 0.00 82 1015.3
20260905224242 27 117 0.0 0.0 0.00 0.00 0.00 82 1015.5
20260905223737 27 117 0.0 0.0 0.00 0.00 0.00 80 1015.5
20260905223234 27 122 0.0 0.0 0.00 0.00 0.00 79 1015.3
20260905222730 27 122 0.0 0.0 0.00 0.00 0.00 77 1015.2
20260905222228 27 124 0.0 0.0 0.00 0.00 0.00 75 1015.1
20260905221724 27 135 0.0 0.0 0.00 0.00 0.00 74 1015.0
20260905221221 27 124 0.0 0.0 0.00 0.00 0.00 77 1015.3
20260905220717 27 117 0.0 0.0 0.00 0.00 0.00 78 1015.3
20260905220213 27 123 0.0 0.0 0.00 0.00 0.00 78 1015.1
20260905215712 27 111 0.0 0.0 0.00 0.00 0.00 77 1015.3
20260905215208 27 111 0.0 0.0 0.00 0.00 0.00 77 1015.3
20260905214704 27 111 0.0 0.0 0.00 0.00 0.00 76 1015.4
20260905214159 27 111 0.0 0.0 0.00 0.00 0.00 76 1015.9
20260905213654 27 125 0.0 0.0 0.00 0.00 0.00 76 1015.9
20260905213150 27 103 0.0 0.0 0.00 0.00 0.00 75 1015.6
20260905212645 27 130 0.0 0.0 0.00 0.00 0.00 76 1015.8
20260905212144 27 114 0.0 0.0 0.00 0.00 0.00 77 1015.6
20260905211638 27 101 0.0 0.0 0.00 0.00 0.00 76 1015.7
20260905211134 27 108 0.0 0.0 0.00 0.00 0.00 76 1015.7
20260905210631 26 111 0.0 0.0 0.00 0.00 0.00 77 1016.2
20260905210125 26 111 0.0 0.0 0.00 0.00 0.00 77 1015.9
20260905205624 26 111 0.0 0.0 0.00 0.00 0.00 77 1016.0
20260905205124 26 111 0.0 0.0 0.00 0.00 0.00 79 1016.1
20260905204624 26 92 0.0 0.0 0.00 0.00 0.00 79 1016.2
20260905204120 26 94 0.0 0.0 0.00 0.00 0.00 80 1016.0
20260905203619 26 89 0.0 1.6 0.00 0.00 0.00 82 1016.2
20260905203115 25 93 0.0 0.0 0.00 0.00 0.00 81 1016.0
20260905202610 25 89 0.0 0.0 0.00 0.00 0.00 83 1016.2
20260905202105 25 110 0.0 0.0 0.00 0.00 0.00 85 1016.2
20260905201601 25 116 0.0 0.0 0.00 0.00 0.00 84 1015.9
20260905201100 25 115 0.0 0.0 0.00 0.00 0.00 84 1015.8
20260905200556 25 115 0.0 0.0 0.00 0.00 0.00 84 1016.0
20260905200050 25 115 0.0 0.0 0.00 0.00 0.00 84 1016.3
20260905195550 25 116 0.0 0.0 0.00 0.00 0.00 84 1016.4
20260905195046 25 116 0.0 0.0 0.00 0.00 0.00 83 1016.4
20260905194545 25 117 0.0 0.0 0.00 0.00 0.00 83 1016.9
20260905194044 26 124 0.0 0.0 0.00 0.00 0.00 82 1016.8
20260905193539 26 111 0.0 0.0 0.00 0.00 0.00 81 1016.7
20260905193035 26 130 0.0 0.0 0.00 0.00 0.00 79 1016.8
20260905192530 26 73 0.0 0.0 0.00 0.00 0.00 80 1016.8
20260905192026 26 120 0.0 0.0 0.00 0.00 0.00 76 1016.2
20260905191525 26 137 0.0 0.0 0.00 0.00 0.00 78 1015.6
20260905191024 27 129 0.0 0.0 0.00 0.00 0.00 79 1015.2
20260905190522 27 102 0.0 0.0 0.00 0.00 0.00 79 1015.3
20260905190022 27 94 0.0 0.0 0.00 0.00 0.00 77 1015.2
20260905185521 27 88 1.6 1.6 0.00 0.00 0.00 76 1015.2
20260905185021 28 106 0.0 0.0 0.00 0.00 0.00 74 1015.4
20260905184521 28 113 0.0 0.0 0.00 0.00 0.00 72 1015.5
20260905184020 28 79 0.0 0.0 0.00 0.00 0.00 70 1015.4
20260905183520 28 112 0.0 0.0 0.00 0.00 0.00 68 1015.7
20260905183015 30 210 3.2 3.2 0.00 0.00 0.00 66 1015.8
20260905182515 31 84 1.6 1.6 0.00 0.00 0.00 64 1016.0
20260905182009 33 295 3.2 4.8 0.00 0.00 0.00 59 1016.8
20260905181504 33 155 1.6 1.6 0.00 0.00 0.00 57 1015.8
20260905181003 33 123 1.6 1.6 0.00 0.00 0.00 61 1016.1
20260905180458 33 203 3.2 3.2 0.00 0.00 0.00 61 1016.2
20260905175953 34 99 0.0 0.0 0.00 0.00 0.00 64 1016.1
20260905175452 34 187 1.6 1.6 0.00 0.00 0.00 60 1016.2
20260905174948 34 54 0.0 0.0 0.00 0.00 0.00 58 1016.4
20260905174443 34 78 0.0 0.0 0.00 0.00 0.00 60 1016.8
20260905173939 34 139 0.0 0.0 0.00 0.00 0.00 58 1016.8
20260905173435 34 39 3.2 3.2 0.00 0.00 0.00 58 1017.0
20260905172931 34 139 4.8 4.8 0.00 0.00 0.00 54 1016.9
20260905172428 35 81 0.0 1.6 0.00 0.00 0.00 58 1017.2
20260905171925 34 145 0.0 0.0 0.00 0.00 0.00 57 1017.2
20260905171421 34 94 1.6 3.2 0.00 0.00 0.00 55 1017.1
20260905170917 35 45 1.6 1.6 0.00 0.00 0.00 54 1017.0
20260905170413 35 138 1.6 1.6 0.00 0.00 0.00 58 1017.4
20260905165912 36 206 4.8 4.8 0.00 0.00 0.00 53 1017.3
20260905165407 35 149 0.0 0.0 0.00 0.00 0.00 58 1017.2
20260905164902 35 81 0.0 1.6 0.00 0.00 0.00 58 1017.4
20260905164357 35 180 0.0 1.6 0.00 0.00 0.00 57 1017.4
20260905163852 35 92 1.6 1.6 0.00 0.00 0.00 57 1017.6
20260905163349 35 114 0.0 0.0 0.00 0.00 0.00 58 1017.6
20260905162844 35 164 0.0 0.0 0.00 0.00 0.00 62 1017.7
20260905162344 35 160 0.0 0.0 0.00 0.00 0.00 64 1017.8
20260905161839 35 104 0.0 0.0 0.00 0.00 0.00 60 1017.8
20260905161338 34 96 0.0 1.6 0.00 0.00 0.00 62 1017.8
20260905160836 33 147 0.0 0.0 0.00 0.00 0.00 70 1017.9
20260905160331 34 186 1.6 1.6 0.00 0.00 0.00 69 1017.8
20260905155825 34 133 0.0 0.0 0.00 0.00 0.00 69 1017.8
20260905155325 34 93 3.2 3.2 0.00 0.00 0.00 66 1018.2
20260905154819 34 123 3.2 3.2 0.00 0.00 0.00 67 1018.1
20260905154314 34 80 0.0 0.0 0.00 0.00 0.00 68 1017.8
20260905153810 33 107 0.0 0.0 0.00 0.00 0.00 72 1018.1
20260905153306 32 120 0.0 0.0 0.00 0.00 0.00 70 1017.8
20260905152806 32 145 1.6 3.2 0.00 0.00 0.00 72 1017.9
20260905152306 33 143 0.0 0.0 0.00 0.00 0.00 70 1018.0
20260905151800 33 132 0.0 0.0 0.00 0.00 0.00 68 1017.9
20260905151256 33 173 1.6 1.6 0.00 0.00 0.00 70 1017.9
20260905150755 32 163 1.6 1.6 0.00 0.00 0.00 71 1018.0
20260905150255 32 147 0.0 0.0 0.00 0.00 0.00 73 1018.1
20260905145753 32 155 0.0 1.6 0.00 0.00 0.00 74 1018.3
20260905145247 32 172 1.6 1.6 0.00 0.00 0.00 75 1018.2
20260905144746 32 136 0.0 0.0 0.00 0.00 0.00 73 1018.1
20260905144242 32 143 0.0 1.6 0.00 0.00 0.00 74 1017.9
20260905143741 32 142 0.0 0.0 0.00 0.00 0.00 76 1017.9
20260905143241 32 131 1.6 1.6 0.00 0.00 0.00 74 1018.0
20260905142739 31 131 0.0 0.0 0.00 0.00 0.00 75 1017.9
20260905142234 32 153 1.6 1.6 0.00 0.00 0.00 75 1018.1
20260905141730 31 125 0.0 0.0 0.00 0.00 0.00 76 1018.1
20260905141226 31 114 0.0 0.0 0.00 0.00 0.00 77 1018.1
20260905140721 30 148 0.0 0.0 0.00 0.00 0.00 77 1018.3
20260905140215 30 131 0.0 0.0 0.00 0.00 0.00 79 1018.2
20260905135715 31 133 0.0 0.0 0.00 0.00 0.00 79 1018.1
20260905135211 30 130 0.0 0.0 0.00 0.00 0.00 79 1018.3
20260905134710 30 142 0.0 0.0 0.00 0.00 0.00 83 1018.0
20260905134210 30 136 0.0 1.6 0.00 0.00 0.00 81 1018.1
20260905133704 30 129 0.0 0.0 0.00 0.00 0.00 80 1018.3
20260905133200 28 121 0.0 0.0 0.00 0.00 0.00 86 1018.1
20260905132659 28 114 0.0 0.0 0.00 0.00 0.00 86 1018.2
20260905132154 27 109 0.0 0.0 0.00 0.00 0.00 92 1018.3
20260905131650 26 108 0.0 0.0 0.00 0.00 0.00 99 1018.5
20260905131150 25 107 0.0 0.0 0.00 0.00 0.00 99 1018.3
20260905130644 25 107 0.0 0.0 0.00 0.00 0.00 99 1018.3
20260905130144 24 107 0.0 0.0 0.00 0.00 0.00 99 1018.5
20260905125638 23 107 0.0 0.0 0.00 0.00 0.00 99 1018.4
20260905125134 23 107 0.0 0.0 0.00 0.00 0.00 99 1018.3
20260905124631 23 107 0.0 0.0 0.00 0.00 0.00 99 1018.3
20260905124126 23 104 0.0 0.0 0.00 0.00 0.00 99 1018.4
20260905123622 23 103 0.0 0.0 0.00 0.00 0.00 99 1018.2
20260905123119 22 103 0.0 0.0 0.00 0.00 0.00 99 1018.4
20260905122618 22 103 0.0 0.0 0.00 0.00 0.00 99 1018.3
20260905122118 22 103 0.0 0.0 0.00 0.00 0.00 99 1018.5
20260905121614 22 103 0.0 0.0 0.00 0.00 0.00 99 1018.7
20260905121109 22 103 0.0 0.0 0.00 0.00 0.00 99 1018.4
20260905120608 22 103 0.0 0.0 0.00 0.00 0.00 99 1018.2
20260905115602 22 102 0.0 0.0 0.00 0.00 0.00 99 1018.5
20260905115057 22 102 0.0 0.0 0.00 0.00 0.00 99 1018.2
20260905114556 22 102 0.0 0.0 0.00 0.00 0.00 99 1018.2
20260905114055 22 102 0.0 0.0 0.00 0.00 0.00 99 1017.9
20260905113550 22 102 0.0 0.0 0.00 0.00 0.00 99 1017.8
20260905113045 22 102 0.0 0.0 0.00 0.00 0.00 99 1018.2
20260905112541 22 102 0.0 0.0 0.00 0.00 0.00 99 1017.9
20260905112036 22 102 0.0 0.0 0.00 0.00 0.00 99 1017.6
20260905111531 22 102 0.0 0.0 0.00 0.00 0.00 99 1017.5
20260905111030 22 100 0.0 0.0 0.00 0.00 0.00 99 1017.5
20260905110529 22 100 0.0 0.0 0.00 0.00 0.00 99 1017.6
20260905110025 22 100 0.0 0.0 0.00 0.00 0.00 99 1017.5
20260905105525 22 100 0.0 0.0 0.00 0.00 0.00 99 1017.3
20260905105024 22 100 0.0 0.0 0.00 0.00 0.00 99 1017.6
20260905104520 22 100 0.0 0.0 0.00 0.00 0.00 99 1017.6
20260905104019 22 98 0.0 0.0 0.00 0.00 0.00 99 1017.6
20260905103515 22 99 0.0 0.0 0.00 0.00 0.00 99 1017.4
20260905103011 22 99 0.0 0.0 0.00 0.00 0.00 99 1017.2
20260905102507 22 99 0.0 0.0 0.00 0.00 0.00 99 1017.1
20260905102002 22 99 0.0 0.0 0.00 0.00 0.00 99 1017.0
20260905101501 22 99 0.0 0.0 0.00 0.00 0.00 99 1017.1
20260905100959 22 99 0.0 0.0 0.00 0.00 0.00 99 1017.0
20260905100455 22 99 0.0 0.0 0.00 0.00 0.00 99 1017.1
20260905095954 22 102 0.0 0.0 0.00 0.00 0.00 99 1017.0
20260905095450 22 102 0.0 0.0 0.00 0.00 0.00 99 1017.1
20260905094945 22 102 0.0 0.0 0.00 0.00 0.00 99 1017.1
20260905094440 22 102 0.0 0.0 0.00 0.00 0.00 99 1017.4
20260905093939 22 104 0.0 0.0 0.00 0.00 0.00 99 1017.1
20260905093434 22 101 0.0 0.0 0.00 0.00 0.00 99 1016.9
20260905092930 22 102 0.0 0.0 0.00 0.00 0.00 99 1017.2
20260905092425 22 102 0.0 0.0 0.00 0.00 0.00 99 1017.0
20260905091921 22 102 0.0 0.0 0.00 0.00 0.00 99 1017.2
20260905091421 22 102 0.0 0.0 0.00 0.00 0.00 99 1016.9
20260905090920 22 102 0.0 0.0 0.00 0.00 0.00 99 1017.2
20260905090415 22 101 0.0 0.0 0.00 0.00 0.00 99 1017.3
20260905085915 22 101 0.0 0.0 0.00 0.00 0.00 99 1017.2
20260905085414 22 102 0.0 0.0 0.00 0.00 0.00 99 1017.4
20260905084910 22 101 0.0 0.0 0.00 0.00 0.00 99 1017.3
20260905084409 22 104 0.0 0.0 0.00 0.00 0.00 99 1017.2
20260905083904 22 106 0.0 0.0 0.00 0.00 0.00 99 1017.2
20260905083400 22 103 0.0 0.0 0.00 0.00 0.00 99 1017.5
20260905082855 22 103 0.0 0.0 0.00 0.00 0.00 99 1017.6
20260905082351 22 103 0.0 0.0 0.00 0.00 0.00 99 1017.6
20260905081847 22 103 0.0 0.0 0.00 0.00 0.00 99 1017.3
20260905081341 22 103 0.0 0.0 0.00 0.00 0.00 99 1017.2
20260905080841 22 103 0.0 0.0 0.00 0.00 0.00 99 1017.5
20260905080341 22 103 0.0 0.0 0.00 0.00 0.00 99 1017.5
20260905075839 22 103 0.0 0.0 0.00 0.00 0.00 99 1017.3
20260905075334 23 103 0.0 0.0 0.00 0.00 0.00 99 1017.5
20260905074833 23 103 0.0 0.0 0.00 0.00 0.00 99 1017.6
20260905074329 23 103 0.0 0.0 0.00 0.00 0.00 99 1017.8
20260905073824 23 103 0.0 0.0 0.00 0.00 0.00 99 1017.9
20260905073320 23 103 0.0 0.0 0.00 0.00 0.00 99 1017.7
20260905072820 23 103 0.0 0.0 0.00 0.00 0.00 99 1017.5
20260905072315 23 103 0.0 0.0 0.00 0.00 0.00 99 1017.8